Location: Newark
(40.7119°N, 74.0097°W)
Time: 23:06:43
(UTC+00:00)

Tiangong - Pass Details

Date: 01 July 2021
Orbit: 374 x 386 km, 41.5° (Epoch: 27 July)

Event Time Altitude Azimuth Distance (km) Brightness Sun altitude
Exits shadow 07:30:33 27° 144° (SE) 764 2.4 -17.2°
Drops below altitude 10° 07:32:15 10° 127° (SE) 1,382 3.9 -17.1°
Sets 07:34:22 0° 121° (ESE) 2,234 5.0 -16.8°
